Regional Weather Roundup
Issued by NWS

Home | Current Version | Previous Version | Text Only | Print | Product List | Glossary Off
Versions: 1 2 3 4 5 6 7 8 9 10 11 12 13 14 15 16 17 18 19 20 21 22 23 24 25 26 27 28 29 30 31 32 33 34 35 36 37 38 39 40 41 42 43 44 45 46 47 48 49 50

000
ASUS43 KLOT 021421
RWRIL

ILLINOIS REGIONAL WEATHER ROUNDUP
NATIONAL WEATHER SERVICE CHICAGO/ROMEOVILLE IL
900 AM CDT SUN AUG 02 2015

NOTE: "FAIR" INDICATES FEW OR NO CLOUDS BELOW 12,000 FEET WITH NO
SIGNIFICANT WEATHER AND/OR OBSTRUCTIONS TO VISIBILITY.

* THESE STATIONS ARE NOT UNDER NWS QUALITY CONTROL. THEY ALSO MAY NOT
  REPORT WEATHER SUCH AS PRECIPITATION OR FOG.

ILZ001-002-007-009-015-016-024-021500-
NORTHWEST ILLINOIS

CITY           SKY/WX    TMP DP  RH WIND       PRES   REMARKS
MOLINE         MOSUNNY   79  64  60 SW12      29.85F HX  81
STERLING*      SUNNY     79  66  65 W8        29.82F HX  81
SAVANNA*       PTSUNNY   77  64  63 SW10      29.84F
$$

ILZ003-004-008-010-011-017-018-021500-
NORTH CENTRAL ILLINOIS

CITY           SKY/WX    TMP DP  RH WIND       PRES   REMARKS
ROCKFORD       MOSUNNY   79  69  71 SW9       29.85S HX  81
FREEPORT*      MOSUNNY   74  68  82 SW14      29.86S
ROCHELLE*      SUNNY     77  67  71 SW15      29.86S
DE KALB*       SUNNY     78  66  67 SW16      29.87R HX  80
PERU*          SUNNY     78  62  58 SW12      29.88S HX  80
$$

ILZ005-006-012>014-019>023-021500-
NORTHEAST ILLINOIS

CITY           SKY/WX    TMP DP  RH WIND       PRES   REMARKS
CHICAGO-OHARE  MOSUNNY   80  65  59 SW16G25   29.84S HX  82
CHICAGO-MIDWAY MOSUNNY   81  65  58 SW14G28   29.85S HX  83
AURORA         SUNNY     77  65  66 SW14      29.86S
LANSING*       SUNNY     79  67  67 SW15G21   29.88S HX  81
JOLIET*        SUNNY     79  69  71 SW8       29.88S HX  81
WAUKEGAN       SUNNY     79  68  69 SW10G18   29.81F HX  81
DUPAGE AIRPORT SUNNY     78  64  61 SW13      29.85S HX  80
KANKAKEE*      SUNNY     79  71  76 SW13G20   29.90S HX  82
WHEELING       SUNNY     81  63  54 SW13G22   29.85R HX  82
MORRIS*        SUNNY     78  67  69 SW10G20   29.87S HX  80
ROMEOVILLE*    SUNNY     77  65  66 SW12G21   29.87S
NORTHERLY ISL    N/A     79  63  57 W10         N/A  HX  80
$$

LMZ740>746-021500-
SOUTHERN LAKE MICHIGAN

STATION/POSITION SKY/WX   TEMP    WIND        PRES    VSBY  WAVE
                          AIR SEA DIR/SP/G                  HT/PER
                          (F)     (DEG/KT/KT) (MB)    (MI)  (FT/S)
HARRISON CRIB              78     230/ 19/ 24   N/A
BURNHAM HARBOR             80     230/  7/ 14   N/A
CALUMET HARBOR             79     220/  8/ 15   N/A
BURNS HARBOR               74     200/ 10/ 13 1012.2S
MICHIGAN CITY              76     180/ 13/ 15   N/A
MICHIGAN CITY 6N           75 74  210/ 12/ 14   N/A           2/ 3
ST. JOSEPH                 74 72  240/ 14/ 16   N/A           2/ 4
$$

ILZ025>027-034>036-040-047-049-050-058-095>099-021500-
WEST-CENTRAL ILLINOIS

CITY           SKY/WX    TMP DP  RH WIND       PRES   REMARKS
QUINCY         PTSUNNY   76  69  79 SW12      29.93R
GALESBURG*     MOSUNNY   75  67  76 S8        29.89F
MACOMB*        CLOUDY    74  67  76 SW7       29.93S
JACKSONVILLE*  PTSUNNY   80  73  78 SW8       29.93S HX  84
PITTSFIELD*    PTSUNNY   78  70  74 SW7       29.94S HX  81
$$

ILZ028>032-037-038-041>044-048-051>054-059>061-021500-
CENTRAL ILLINOIS

CITY           SKY/WX    TMP DP  RH WIND       PRES   REMARKS
PONTIAC        SUNNY     79  74  84 SW13      29.91S HX  82
BLOOMINGTON    SUNNY     77  72  84 SW12      29.94F
DECATUR        MOSUNNY   79  69  71 SW8       29.95F HX  81
PEORIA         SUNNY     78  68  71 SW10      29.91S HX  80
LACON*         SUNNY     77  64  64 SW10G16   29.88F
LINCOLN*       SUNNY     81  71  72 SW8       29.92F HX  85
SPRINGFIELD    SUNNY     80  70  71 SW12G17   29.93F HX  83
TAYLORVILLE    SUNNY     79  72  78 SW7       29.95F HX  82
$$

ILZ033-039-045-046-055>057-062-063-021500-
EAST-CENTRAL ILLINOIS

CITY           SKY/WX    TMP DP  RH WIND       PRES   REMARKS
CHAMPAIGN      SUNNY     77  69  76 SW10      29.95S
DANVILLE*      SUNNY     75  68  78 SW8       29.93S
RANTOUL*       SUNNY     79  71  75 SW9       29.94S HX  81
MATTOON        SUNNY     77  65  66 SW10      29.96S
PARIS*         SUNNY     78  68  72 SW7       29.97S
$$

ILZ079-100>102-021500-
SOUTHWEST ILLINOIS

CITY           SKY/WX    TMP DP  RH WIND       PRES   REMARKS
ALTON          MOSUNNY   81  72  74 S6        29.96S HX  84
BELLEVILLE     SUNNY     81  75  82 S6        29.96R HX  87
CAHOKIA*       SUNNY     81  70  69 VRB3      29.96S HX  84
SPARTA*        SUNNY     79  71  76 S10       29.99S HX  82
$$

ILZ064>066-069>071-074>076-080>082-084>086-088>090-092>094-021500-
SOUTH-CENTRAL ILLINOIS

CITY           SKY/WX    TMP DP  RH WIND       PRES   REMARKS
CARBONDALE     SUNNY     78  67  68 S6        29.99R HX  80
CAIRO*         SUNNY     78  68  70 S7        30.00S HX  80
EFFINGHAM*     SUNNY     79  63  58 SW6       29.99S HX  80
MARION         MOSUNNY   79  68  69 S8        30.00R HX  81
MT. VERNON     SUNNY     82  68  61 SW9       29.99S HX  85
CENTRALIA*     SUNNY     80  66  62 SW7       29.98S HX  82
SALEM*         SUNNY     80  67  63 SW8       29.98R HX  82
METROPOLIS*    SUNNY     78  69  72 SE6       30.00S HX  80
$$

ILZ067-068-072-073-078-083-087-091-021500-
SOUTHEAST ILLINOIS

CITY           SKY/WX    TMP DP  RH WIND       PRES   REMARKS
LAWRENCEVILLE  SUNNY     77  66  68 SW6       29.99R
FLORA*         SUNNY     78  64  61 SW6       29.98S HX  80
FAIRFIELD*     SUNNY     77  67  69 S3        29.97S
HARRISBURG*    SUNNY     76  68  77 SW3       30.00R
ROBINSON*      SUNNY     77  66  69 SW5       29.99S
CARMI*         SUNNY     77  65  66 CALM      29.99R
$$

ABBREVIATIONS USED IN REMARKS
   TC - TEMPERATURE IN CELSIUS
  WCI - WIND CHILL INDEX
   HX - HEAT INDEX
  VSB - VISIBILITY
$$




USA.gov is the U.S. government's official web portal to all federal, state and local government web resources and services.